• In Netherlands
  • List of Countries
  • For 7 days
  • Water Temperature
  • Satellite Maps
  • Weather Map
  • Weather Widgets
  • user-avatar
    Login

    Hourly Weather Mingachevir

    Today, 25 April, Tuesday

    Time Temperature Precipitation Wind Pressure Humidity
    00:00 +12°C° 0 mm 2 mps 754 mmHg 59%
    01:00 +11°C° 0 mm 1 mps 754 mmHg 60%
    02:00 +11°C° 0 mm 1 mps 754 mmHg 62%
    03:00 +10°C° 0 mm 1 mps 754 mmHg 62%
    04:00 +10°C° 0 mm 1 mps 755 mmHg 61%
    05:00 +11°C° 0 mm 1 mps 755 mmHg 59%
    06:00 +11°C° 0 mm 1 mps 755 mmHg 58%
    07:00 +12°C° 0 mm 3 mps 756 mmHg 51%
    08:00 +14°C° 0 mm 4 mps 756 mmHg 44%
    09:00 +17°C° 0 mm 4 mps 756 mmHg 37%
    10:00 +18°C° 0 mm 4 mps 756 mmHg 36%
    11:00 +18°C° 0 mm 4 mps 756 mmHg 34%
    12:00 +19°C° 0 mm 3 mps 756 mmHg 33%
    13:00 +19°C° 0 mm 3 mps 756 mmHg 33%
    14:00 +19°C° 0 mm 3 mps 756 mmHg 33%
    15:00 +19°C° 0 mm 3 mps 756 mmHg 34%
    16:00 +18°C° 0 mm 3 mps 757 mmHg 37%
    17:00 +18°C° 0 mm 3 mps 758 mmHg 39%
    18:00 +17°C° 0 mm 3 mps 759 mmHg 42%
    19:00 +14°C° 0 mm 3 mps 759 mmHg 46%
    20:00 +13°C° 0 mm 3 mps 760 mmHg 51%
    21:00 +12°C° 0 mm 3 mps 761 mmHg 55%
    22:00 +11°C° 0 mm 3 mps 762 mmHg 60%
    23:00 +10°C° 0 mm 2 mps 762 mmHg 65%

    Tomorrow, 26 April, Wednesday

    Time Temperature Precipitation Wind Pressure Humidity
    00:00 +9°C° 0 mm 2 mps 763 mmHg 70%
    01:00 +9°C° 0 mm 2 mps 763 mmHg 71%
    02:00 +8°C° 0 mm 2 mps 763 mmHg 72%
    03:00 +8°C° 0 mm 2 mps 763 mmHg 73%
    04:00 +9°C° 0 mm 2 mps 764 mmHg 72%
    05:00 +9°C° 0 mm 2 mps 764 mmHg 70%
    06:00 +10°C° 0 mm 3 mps 764 mmHg 68%
    07:00 +10°C° 0 mm 3 mps 765 mmHg 65%
    08:00 +11°C° 0 mm 4 mps 765 mmHg 61%
    09:00 +12°C° 0 mm 4 mps 765 mmHg 57%
    10:00 +13°C° 0 mm 4 mps 764 mmHg 51%
    11:00 +15°C° 0 mm 5 mps 764 mmHg 45%
    12:00 +16°C° 0 mm 5 mps 764 mmHg 39%
    13:00 +17°C° 0 mm 5 mps 763 mmHg 38%
    14:00 +17°C° 0 mm 5 mps 763 mmHg 37%
    15:00 +19°C° 0 mm 5 mps 763 mmHg 36%
    16:00 +17°C° 0 mm 5 mps 763 mmHg 39%
    17:00 +16°C° 0 mm 5 mps 763 mmHg 43%
    18:00 +15°C° 0 mm 4 mps 763 mmHg 46%
    19:00 +13°C° 0 mm 4 mps 764 mmHg 52%
    20:00 +12°C° 0 mm 3 mps 764 mmHg 57%
    21:00 +10°C° 0 mm 3 mps 765 mmHg 62%
    22:00 +9°C° 0 mm 3 mps 765 mmHg 65%
    23:00 +9°C° 0 mm 2 mps 765 mmHg 67%

    Day after tomorrow, 27 April, Thursday

    Time Temperature Precipitation Wind Pressure Humidity
    00:00 +8°C° 0 mm 2 mps 765 mmHg 69%
    01:00 +7°C° 0 mm 2 mps 764 mmHg 70%
    02:00 +8°C° 0 mm 1 mps 764 mmHg 71%
    03:00 +7°C° 0 mm 1 mps 764 mmHg 72%
    04:00 +8°C° 0 mm 1 mps 764 mmHg 70%
    05:00 +9°C° 0 mm 1 mps 764 mmHg 67%
    06:00 +10°C° 0 mm 1 mps 764 mmHg 65%
    07:00 +12°C° 0 mm 1 mps 764 mmHg 57%
    08:00 +14°C° 0 mm 2 mps 764 mmHg 49%
    09:00 +15°C° 0 mm 2 mps 763 mmHg 41%
    10:00 +17°C° 0 mm 3 mps 763 mmHg 39%
    11:00 +18°C° 0 mm 3 mps 762 mmHg 38%
    12:00 +19°C° 0 mm 4 mps 762 mmHg 36%
    13:00 +20°C° 0 mm 4 mps 761 mmHg 36%
    14:00 +20°C° 0 mm 5 mps 761 mmHg 36%
    15:00 +21°C° 0 mm 5 mps 760 mmHg 36%
    16:00 +20°C° 0 mm 4 mps 761 mmHg 40%
    17:00 +19°C° 0 mm 4 mps 761 mmHg 43%
    18:00 +18°C° 0 mm 3 mps 761 mmHg 46%
    19:00 +16°C° 0 mm 3 mps 762 mmHg 50%
    20:00 +14°C° 0 mm 3 mps 762 mmHg 54%
    21:00 +12°C° 0 mm 3 mps 763 mmHg 57%
    22:00 +12°C° 0 mm 2 mps 763 mmHg 58%
    23:00 +12°C° 0 mm 2 mps 763 mmHg 59%

    28 April, Friday

    Time Temperature Precipitation Wind Pressure Humidity
    00:00 +11°C° 0 mm 1 mps 762 mmHg 60%
    01:00 +11°C° 0 mm 1 mps 762 mmHg 63%
    02:00 +10°C° 0 mm 1 mps 762 mmHg 66%
    03:00 +9°C° 0 mm 0 mps 762 mmHg 68%
    04:00 +10°C° 0 mm 0 mps 762 mmHg 67%
    05:00 +11°C° 0 mm 0 mps 761 mmHg 65%
    06:00 +12°C° 0 mm 0 mps 761 mmHg 63%
    07:00 +14°C° 0 mm 1 mps 761 mmHg 59%
    08:00 +15°C° 0 mm 1 mps 761 mmHg 55%
    09:00 +18°C° 0 mm 1 mps 760 mmHg 51%
    10:00 +18°C° 0 mm 2 mps 760 mmHg 49%
    11:00 +19°C° 0 mm 2 mps 759 mmHg 47%
    12:00 +20°C° 0 mm 2 mps 758 mmHg 45%
    13:00 +21°C° 0 mm 2 mps 758 mmHg 44%
    14:00 +23°C° 0 mm 2 mps 757 mmHg 43%
    15:00 +23°C° 0 mm 2 mps 757 mmHg 42%
    16:00 +21°C° 0 mm 2 mps 757 mmHg 46%
    17:00 +21°C° 0 mm 2 mps 757 mmHg 50%
    18:00 +20°C° 0 mm 2 mps 757 mmHg 53%
    19:00 +18°C° 0 mm 2 mps 758 mmHg 56%
    20:00 +17°C° 0 mm 2 mps 758 mmHg 59%
    21:00 +15°C° 0 mm 2 mps 758 mmHg 61%
    22:00 +14°C° 0 mm 2 mps 758 mmHg 62%
    23:00 +14°C° 0 mm 2 mps 758 mmHg 62%

    29 April, Saturday

    Time Temperature Precipitation Wind Pressure Humidity
    00:00 +13°C° 0 mm 1 mps 757 mmHg 63%
    01:00 +13°C° 0 mm 1 mps 757 mmHg 64%
    02:00 +12°C° 0 mm 1 mps 756 mmHg 65%
    03:00 +11°C° 0 mm 0 mps 756 mmHg 65%
    04:00 +13°C° 0 mm 1 mps 756 mmHg 64%
    05:00 +14°C° 0 mm 1 mps 756 mmHg 63%
    06:00 +14°C° 0 mm 2 mps 756 mmHg 62%
    07:00 +16°C° 0 mm 2 mps 756 mmHg 56%
    08:00 +18°C° 0 mm 2 mps 756 mmHg 50%
    09:00 +20°C° 0 mm 2 mps 755 mmHg 44%
    10:00 +21°C° 0 mm 2 mps 755 mmHg 41%
    11:00 +24°C° 0 mm 2 mps 754 mmHg 38%
    12:00 +25°C° 0 mm 2 mps 754 mmHg 35%
    13:00 +25°C° 0 mm 1 mps 753 mmHg 35%
    14:00 +26°C° 0 mm 1 mps 753 mmHg 34%
    15:00 +26°C° 0 mm 1 mps 753 mmHg 33%
    16:00 +25°C° 0.2 mm 1 mps 753 mmHg 39%
    17:00 +24°C° 0.2 mm 1 mps 753 mmHg 45%
    18:00 +21°C° 0.2 mm 2 mps 753 mmHg 51%
    19:00 +20°C° 0 mm 2 mps 753 mmHg 54%
    20:00 +20°C° 0 mm 1 mps 754 mmHg 56%
    21:00 +18°C° 0 mm 1 mps 754 mmHg 59%
    22:00 +18°C° 0 mm 1 mps 754 mmHg 60%
    23:00 +16°C° 0 mm 1 mps 754 mmHg 62%

    30 April, Sunday

    Time Temperature Precipitation Wind Pressure Humidity
    00:00 +15°C° 0 mm 1 mps 754 mmHg 63%
    01:00 +15°C° 0 mm 1 mps 753 mmHg 64%
    02:00 +15°C° 0 mm 1 mps 753 mmHg 64%
    03:00 +14°C° 0 mm 1 mps 753 mmHg 65%
    04:00 +15°C° 0 mm 1 mps 753 mmHg 64%
    05:00 +16°C° 0 mm 1 mps 753 mmHg 63%
    06:00 +17°C° 0 mm 2 mps 754 mmHg 61%
    07:00 +19°C° 0 mm 2 mps 753 mmHg 53%
    08:00 +21°C° 0 mm 2 mps 753 mmHg 45%
    09:00 +24°C° 0 mm 3 mps 753 mmHg 37%
    10:00 +26°C° 0 mm 2 mps 753 mmHg 35%
    11:00 +27°C° 0 mm 2 mps 752 mmHg 33%
    12:00 +28°C° 0 mm 2 mps 752 mmHg 31%
    13:00 +28°C° 0 mm 2 mps 751 mmHg 31%
    14:00 +29°C° 0 mm 1 mps 751 mmHg 30%
    15:00 +29°C° 0 mm 1 mps 750 mmHg 30%
    16:00 +28°C° 0 mm 1 mps 751 mmHg 35%
    17:00 +27°C° 0 mm 1 mps 751 mmHg 40%
    18:00 +26°C° 0 mm 1 mps 751 mmHg 46%
    19:00 +24°C° 0 mm 1 mps 752 mmHg 47%
    20:00 +21°C° 0 mm 2 mps 752 mmHg 48%
    21:00 +19°C° 0 mm 2 mps 752 mmHg 49%
    22:00 +18°C° 0.1 mm 2 mps 752 mmHg 54%
    23:00 +17°C° 0.1 mm 2 mps 752 mmHg 58%
    Show more